Date String (YYYY-MM-DD hh:mm:ss) UTC,Instrument flags,Ambient pressure (hPa),Sample flow (lpm),Bypass flow (lpm),Sample temperature (°C),Ambient temperature (°C),ASC tube jacket temperature (°C),LED temperature (°C),Box temperature (°C),Sample RH (%),Span deviation,Mass concentration (μg/m³),Mass concentration (μg/m³),Mass concentration (μg/m³)
DateTimeUTC,F1_M11,P_M11,Q1_M11,Q2_M11,T1_M11,T2_M11,T3_M11,T4_M11,T5_M11,U1_M11,ZSPAN_M11,X0_M11,X2_M11,X1_M11
2021-09-01 09:00:00,,0822.1,5.00,0.00,29.8,29.0,00.0,38.8,31.7,16.2,0000.8,0053.44,0032.55,0029.90
2021-09-01 09:01:00,,0822.1,5.02,0.00,29.8,27.7,00.0,38.8,31.3,16.3,0000.9,0052.46,0032.64,0030.02
2021-09-01 09:02:00,,0822.1,4.99,0.00,29.6,26.2,00.0,38.8,31.0,16.4,0000.7,0052.63,0032.87,0030.18
2021-09-01 09:03:00,,0822.1,5.00,0.00,29.6,26.3,00.0,38.8,31.0,16.6,0000.6,0052.64,0033.00,0030.27
2021-09-01 09:04:00,,0822.0,4.98,0.00,29.5,26.6,00.0,38.7,31.0,16.6,0000.7,0052.78,0033.05,0030.35
2021-09-01 09:05:00,,0822.0,5.00,0.00,29.5,27.1,00.0,38.7,31.1,16.6,0000.6,0051.86,0032.99,0030.30
2021-09-01 09:06:00,,0822.0,5.01,0.00,29.4,27.4,00.0,38.7,31.1,16.4,0000.7,0050.99,0032.89,0030.19
2021-09-01 09:07:00,,0821.9,5.01,0.00,29.5,27.7,00.0,38.7,31.2,16.1,0001.1,0051.80,0032.77,0030.00
2021-09-01 09:08:00,,0822.1,4.99,0.00,29.5,27.9,00.0,38.7,31.2,15.9,0001.1,0052.88,0032.61,0029.80
2021-09-01 09:09:00,,0822.1,5.00,0.00,29.5,28.1,00.0,38.7,31.3,15.6,0001.3,0051.88,0032.38,0029.61
2021-09-01 09:10:00,,0822.1,5.02,0.00,29.6,28.3,00.0,38.7,31.3,15.5,0001.3,0051.97,0032.28,0029.42
2021-09-01 09:11:00,,0822.0,4.99,0.00,29.6,28.4,00.0,38.7,31.4,15.3,0001.0,0051.77,0032.06,0029.21
2021-09-01 09:12:00,,0821.9,5.01,0.00,29.6,28.5,00.0,38.7,31.4,15.3,0000.8,0051.55,0031.80,0028.99
2021-09-01 09:13:00,,0822.0,5.00,0.00,29.6,28.6,00.0,38.7,31.4,15.4,0000.9,0051.70,0031.56,0028.77
2021-09-01 09:14:00,,0822.0,5.00,0.00,29.7,28.6,00.0,38.7,31.4,15.7,0001.1,0052.28,0031.37,0028.58
2021-09-01 09:15:00,,0822.0,4.99,0.00,29.7,28.7,00.0,38.7,31.5,15.9,0001.2,0053.31,0031.27,0028.44
2021-09-01 09:16:00,,0821.9,5.01,0.00,29.7,28.7,00.0,38.7,31.5,15.9,0001.2,0053.63,0031.23,0028.38
2021-09-01 09:17:00,,0821.9,5.01,0.00,29.8,28.8,00.0,38.7,31.6,15.8,0001.2,0053.47,0031.14,0028.34
2021-09-01 09:18:00,,0822.0,4.99,0.00,29.8,28.8,00.0,38.8,31.6,15.7,0001.1,0052.24,0031.05,0028.36
2021-09-01 09:19:00,,0822.3,5.01,0.00,29.8,28.9,00.0,38.8,31.6,15.7,0001.1,0051.03,0030.92,0028.34
2021-09-01 09:20:00,,0822.1,5.00,0.00,29.8,28.9,00.0,38.8,31.6,15.7,0001.2,0050.58,0030.85,0028.30
2021-09-01 09:21:00,,0822.3,5.00,0.00,29.9,28.9,00.0,38.8,31.7,15.6,0001.3,0050.01,0030.74,0028.29
2021-09-01 09:22:00,,0822.1,4.99,0.00,29.9,28.9,00.0,38.8,31.7,15.5,0001.4,0050.83,0030.67,0028.31
2021-09-01 09:23:00,,0822.0,5.00,0.00,29.8,27.3,00.0,38.8,31.2,15.5,0001.4,0052.11,0030.70,0028.35
2021-09-01 09:24:00,,0821.8,5.00,0.00,29.6,26.1,00.0,38.8,30.9,15.6,0001.6,0052.36,0030.64,0028.37
2021-09-01 09:25:00,,0821.8,5.01,0.00,29.6,26.3,00.0,38.8,31.0,15.6,0001.7,0052.14,0030.65,0028.44
2021-09-01 09:26:00,,0821.9,5.00,0.00,29.5,26.7,00.0,38.8,31.0,15.7,0001.9,0050.84,0030.57,0028.44
2021-09-01 09:27:00,,0821.9,4.99,0.00,29.5,27.1,00.0,38.7,31.0,15.6,0001.9,0050.14,0030.43,0028.38
2021-09-01 09:28:00,,0821.9,5.01,0.00,29.5,27.4,00.0,38.7,31.1,15.6,0001.9,0049.87,0030.33,0028.29
2021-09-01 09:29:00,,0822.0,4.99,0.00,29.5,27.7,00.0,38.7,31.2,16.0,0002.0,0048.78,0030.13,0028.12
2021-09-01 09:30:00,,0821.9,5.00,0.00,29.5,27.9,00.0,38.7,31.2,15.6,0001.8,0049.34,0030.04,0027.97
2021-09-01 09:31:00,,0821.9,5.01,0.00,29.5,28.1,00.0,38.7,31.3,15.5,0001.7,0048.82,0029.93,0027.87
2021-09-01 09:32:00,,0821.9,5.01,0.00,29.6,28.2,00.0,38.7,31.3,15.2,0001.6,0050.19,0029.87,0027.77
2021-09-01 09:33:00,,0822.2,4.99,0.00,29.6,28.4,00.0,38.7,31.4,15.2,0001.9,0048.74,0029.78,0027.71
2021-09-01 09:34:00,,0822.0,5.01,0.00,29.6,28.5,00.0,38.7,31.4,15.2,0001.7,0047.37,0029.73,0027.64
2021-09-01 09:35:00,,0821.8,4.99,0.00,29.7,28.5,00.0,38.7,31.4,15.3,0001.5,0046.84,0029.61,0027.50
2021-09-01 09:36:00,,0821.8,5.00,0.00,29.7,28.6,00.0,38.7,31.5,15.4,0001.3,0045.54,0029.40,0027.32
2021-09-01 09:37:00,,0821.8,5.01,0.00,29.7,28.7,00.0,38.7,31.5,15.5,0001.3,0044.87,0029.09,0027.12
2021-09-01 09:38:00,,0821.8,4.99,0.00,29.7,28.7,00.0,38.7,31.5,15.4,0001.2,0045.17,0028.83,0026.91
2021-09-01 09:39:00,,0821.8,5.01,0.00,29.8,28.8,00.0,38.8,31.6,15.3,0001.2,0044.71,0028.52,0026.65
2021-09-01 09:40:00,,0821.8,4.99,0.00,29.8,28.8,00.0,38.8,31.6,15.2,0001.1,0043.84,0028.25,0026.41
2021-09-01 09:41:00,,0821.9,5.01,0.00,29.8,28.8,00.0,38.8,31.6,15.1,0001.1,0042.87,0027.94,0026.16
2021-09-01 09:42:00,,0821.8,4.99,0.00,29.9,28.9,00.0,38.8,31.7,15.0,0001.3,0042.46,0027.66,0025.92
2021-09-01 09:43:00,,0821.8,5.00,0.00,29.9,28.9,00.0,38.8,31.7,14.9,0001.4,0040.13,0027.31,0025.67
2021-09-01 09:44:00,,0821.8,5.00,0.00,29.9,29.0,00.0,38.9,31.7,15.0,0001.2,0039.74,0026.97,0025.37
2021-09-01 09:45:00,,0821.8,5.01,0.00,29.9,28.2,00.0,38.9,31.5,15.0,0001.4,0039.20,0026.66,0025.10
2021-09-01 09:46:00,,0821.8,5.00,0.00,29.7,26.4,00.0,38.9,31.0,15.2,0001.3,0038.85,0026.45,0024.90
2021-09-01 09:47:00,,0821.8,5.00,0.00,29.6,26.2,00.0,38.8,31.0,15.6,0001.2,0038.82,0026.45,0024.84
2021-09-01 09:48:00,,0821.8,4.99,0.00,29.6,26.6,00.0,38.8,31.1,15.3,0001.1,0039.04,0026.42,0024.76
2021-09-01 09:49:00,,0821.8,5.00,0.00,29.5,27.0,00.0,38.8,31.1,15.2,0001.2,0038.21,0026.30,0024.61
2021-09-01 09:50:00,,0821.8,5.02,0.00,29.5,27.4,00.0,38.7,31.1,15.2,0001.3,0037.98,0026.20,0024.51
2021-09-01 09:51:00,,0821.8,4.98,0.00,29.5,27.6,00.0,38.7,31.2,15.3,0001.4,0038.11,0026.15,0024.47
2021-09-01 09:52:00,,0821.8,5.01,0.00,29.5,27.9,00.0,38.7,31.3,15.2,0001.4,0038.38,0026.13,0024.47
2021-09-01 09:53:00,,0821.8,5.00,0.00,29.6,28.0,00.0,38.7,31.3,15.2,0001.5,0037.93,0026.06,0024.43
2021-09-01 09:54:00,,0821.8,5.01,0.00,29.6,28.2,00.0,38.7,31.3,15.2,0001.3,0037.88,0026.04,0024.38
2021-09-01 09:55:00,,0821.9,5.00,0.00,29.6,28.3,00.0,38.7,31.4,15.5,0001.3,0038.02,0026.09,0024.40
2021-09-01 09:56:00,,0821.8,5.00,0.00,29.6,28.4,00.0,38.7,31.4,15.7,0001.6,0038.67,0026.25,0024.53
2021-09-01 09:57:00,,0821.8,5.00,0.00,29.7,28.5,00.0,38.7,31.5,15.6,0001.9,0038.49,0026.40,0024.66
2021-09-01 09:58:00,,0821.9,5.00,0.00,29.7,28.5,00.0,38.7,31.5,15.8,0001.9,0038.25,0026.45,0024.73
2021-09-01 09:59:00,,0821.9,5.01,0.00,29.7,28.6,00.0,38.7,31.5,15.9,0001.8,0038.72,0026.57,0024.81
